Weather History for Aurora, NE

Change the Weather History Date:

Saturday, January 12, 2013

  Actual Average Record
Temperature  
Mean Temperature 14 °F -  
Max Temperature 21 °F 30 °F 64 °F (1986)
Min Temperature 8 °F 10 °F -21 °F (1974)
Degree Days  
Heating Degree Days 50    
Moisture  
Dew Point 8 °F    
Average Humidity 70    
Maximum Humidity 82    
Minimum Humidity 59    
Precipitation  
Precipitation 0.00 in - - ()
Sea Level Pressure  
Sea Level Pressure 30.03 in    
Wind  
Wind Speed 17 mph (NW)    
Max Wind Speed 28 mph    
Max Gust Speed 34 mph    
Visibility 10 miles    
Events      
Averages and records for this station are not official NWS values.
T = Trace of Precipitation, MM = Missing Value Source: NWS Daily Summary

Daily Weather History Graph

Daily Weather History Graph

Search for Another Location

Airport:

Trip Planner

Search our weather history database for the weather conditions in past years. The results will help you decide how hot, cold, wet, or windy it might be!

Date:

Astronomy

Jan. 12, 2013 Rise Set
Actual Time 7:55 AM CST 5:25 PM CST
Civil Twilight 7:25 AM CST 5:56 PM CST
Nautical Twilight 6:51 AM CST 6:30 PM CST
Astronomical Twilight 6:18 AM CST 7:03 PM CST
Moon 8:14 AM CST (1/12) 6:57 PM CST (1/12)
Length of Visible Light 10h 31m
Length of Day
9h 30m
New Moon, 1% of the Moon is Illuminated
Jan 12
New Moon
Jan 18
First Quarter
Jan 26
Full
Feb 3
Last Quarter
Feb 10
New

Hourly Weather History & Observations

Time (CST) Temp. Windchill Dew Point Humidity Pressure Visibility Wind Dir Wind Speed Gust Speed Precip Events Conditions
12:15 AM 21.7 °F 7.1 °F 16.0 °F 78% 29.82 in 10.0 mi WNW 18.4 mph 26.5 mph N/A   Clear
12:35 AM 21.2 °F 5.6 °F 16.3 °F 82% 29.82 in 10.0 mi WNW 20.7 mph - N/A   Clear
12:55 AM 21.0 °F 5.4 °F 15.4 °F 79% 29.83 in 10.0 mi WNW 20.7 mph 29.9 mph N/A   Clear
1:15 AM 20.7 °F 4.9 °F 14.7 °F 78% 29.84 in 10.0 mi WNW 20.7 mph 26.5 mph N/A   Clear
1:35 AM 20.3 °F 2.6 °F 13.6 °F 75% 29.85 in 10.0 mi WNW 26.5 mph 29.9 mph N/A   Clear
1:55 AM 19.9 °F 3.2 °F 12.7 °F 74% 29.86 in 10.0 mi WNW 23.0 mph 31.1 mph N/A   Clear
2:15 AM 19.4 °F 3.2 °F 13.1 °F 76% 29.87 in 10.0 mi WNW 20.7 mph 26.5 mph N/A   Clear
2:35 AM 19.2 °F 0.9 °F 11.7 °F 72% 29.89 in 10.0 mi NW 27.6 mph 34.5 mph N/A   Clear
2:55 AM 18.5 °F 1.6 °F 11.7 °F 75% 29.89 in 10.0 mi NW 21.9 mph - N/A   Clear
3:15 AM 18.5 °F 2.4 °F 12.0 °F 76% 29.90 in 10.0 mi NW 19.6 mph - N/A   Clear
3:35 AM 18.1 °F 2.4 °F 11.1 °F 74% 29.92 in 10.0 mi NW 18.4 mph - N/A   Clear
3:55 AM 17.6 °F 0.9 °F 10.4 °F 73% 29.92 in 10.0 mi NW 20.7 mph 24.2 mph N/A   Clear
4:15 AM 17.4 °F 0.2 °F 10.2 °F 73% 29.92 in 10.0 mi NW 21.9 mph 26.5 mph N/A   Clear
4:35 AM 17.1 °F 2.0 °F 9.9 °F 73% 29.93 in 10.0 mi NW 16.1 mph 23.0 mph N/A   Clear
4:55 AM 16.7 °F 1.5 °F 9.5 °F 73% 29.95 in 10.0 mi NW 16.1 mph 21.9 mph N/A   Clear
5:15 AM 16.3 °F 2.7 °F 9.5 °F 74% 29.96 in 10.0 mi NW 12.7 mph - N/A   Clear
5:35 AM 15.8 °F 5.1 °F 9.5 °F 76% 29.98 in 10.0 mi NW 8.1 mph - N/A   Clear
5:55 AM 15.6 °F 1.2 °F 8.8 °F 74% 29.97 in 10.0 mi NW 13.8 mph - N/A   Clear
6:15 AM 15.1 °F 1.1 °F 8.2 °F 74% 29.99 in 10.0 mi NW 12.7 mph - N/A   Clear
6:35 AM 14.7 °F -1.6 °F 6.8 °F 71% 29.98 in 10.0 mi NW 17.3 mph - N/A   Clear
6:55 AM 14.4 °F 0.9 °F 6.4 °F 71% 29.99 in 10.0 mi NW 11.5 mph - N/A   Clear
7:15 AM 13.8 °F 1.8 °F 6.8 °F 74% 30.00 in 10.0 mi NW 9.2 mph - N/A   Clear
7:35 AM 13.6 °F 0.0 °F 6.6 °F 74% 30.01 in 10.0 mi NW 11.5 mph - N/A   Clear
7:55 AM 13.6 °F -0.7 °F 6.1 °F 72% 30.02 in 10.0 mi NW 12.7 mph - N/A   Clear
8:15 AM 13.6 °F 0.7 °F 6.3 °F 72% 30.02 in 10.0 mi NW 10.4 mph - N/A   Clear
8:35 AM 13.8 °F -2.7 °F 4.8 °F 67% 30.04 in 10.0 mi NW 17.3 mph 24.2 mph N/A   Clear
8:55 AM 14.0 °F -0.2 °F 4.8 °F 67% 30.06 in 10.0 mi NW 12.7 mph - N/A   Clear
9:15 AM 14.7 °F 3.8 °F 4.6 °F 64% 30.08 in 10.0 mi WNW 8.1 mph - N/A   Clear
9:35 AM 14.9 °F -0.3 °F 3.2 °F 60% 30.10 in 10.0 mi NW 15.0 mph 18.4 mph N/A   Clear
9:55 AM 15.6 °F 2.5 °F 5.0 °F 63% 30.10 in 10.0 mi WNW 11.5 mph - N/A   Clear
10:15 AM 15.8 °F -0.6 °F 4.8 °F 62% 30.09 in 10.0 mi NW 18.4 mph - N/A   Clear
10:35 AM 16.5 °F 0.3 °F 5.7 °F 63% 30.10 in 10.0 mi NW 18.4 mph 24.2 mph N/A   Clear
10:55 AM 16.7 °F 1.0 °F 5.5 °F 62% 30.10 in 10.0 mi WNW 17.3 mph - N/A   Clear
11:15 AM 17.4 °F 1.5 °F 5.4 °F 59% 30.11 in 10.0 mi NW 18.4 mph 25.3 mph N/A   Clear
11:55 AM 18.5 °F 2.9 °F 6.3 °F 59% 30.08 in 10.0 mi WNW 18.4 mph 24.2 mph N/A   Clear
12:15 PM 19.0 °F 2.7 °F 7.2 °F 60% 30.06 in 10.0 mi WNW 20.7 mph 24.2 mph N/A   Clear
12:35 PM 18.9 °F 4.3 °F 6.6 °F 59% 30.06 in 10.0 mi WNW 16.1 mph - N/A   Clear
12:55 PM 19.0 °F 4.0 °F 7.0 °F 59% 30.05 in 10.0 mi WNW 17.3 mph - N/A   Scattered Clouds
1:15 PM 19.0 °F 2.4 °F 7.3 °F 60% 30.05 in 10.0 mi NW 21.9 mph - N/A   Scattered Clouds
1:35 PM 18.5 °F 1.6 °F 7.2 °F 61% 30.05 in 10.0 mi NW 21.9 mph - N/A   Scattered Clouds
1:55 PM 18.9 °F 4.3 °F 7.9 °F 62% 30.05 in 10.0 mi NW 16.1 mph 26.5 mph N/A   Clear
2:15 PM 19.0 °F 2.7 °F 7.7 °F 61% 30.04 in 10.0 mi NW 20.7 mph 24.2 mph N/A   Scattered Clouds
2:35 PM 18.5 °F 1.3 °F 7.5 °F 62% 30.05 in 10.0 mi NNW 23.0 mph - N/A   Scattered Clouds
2:55 PM 18.3 °F 3.1 °F 7.2 °F 62% 30.05 in 10.0 mi NW 17.3 mph 24.2 mph N/A   Clear
3:15 PM 17.6 °F 0.9 °F 6.4 °F 62% 30.05 in 10.0 mi NW 20.7 mph - N/A   Clear
3:35 PM 17.6 °F 0.9 °F 7.2 °F 64% 30.05 in 10.0 mi NNW 20.7 mph - N/A   Clear
3:55 PM 17.6 °F 1.3 °F 7.2 °F 64% 30.05 in 10.0 mi NW 19.6 mph 25.3 mph N/A   Clear
4:15 PM 17.4 °F 2.9 °F 7.5 °F 65% 30.05 in 10.0 mi NNW 15.0 mph 24.2 mph N/A   Clear
4:35 PM 17.1 °F 1.5 °F 7.7 °F 67% 30.06 in 10.0 mi NNW 17.3 mph - N/A   Clear
4:55 PM 16.7 °F 1.5 °F 7.7 °F 68% 30.07 in 10.0 mi NNW 16.1 mph 21.9 mph N/A   Clear
5:15 PM 17.2 °F 1.7 °F 7.7 °F 66% 30.08 in 10.0 mi NNW 17.3 mph - N/A   Clear
5:35 PM 17.1 °F 0.1 °F 7.5 °F 66% 30.08 in 10.0 mi NNW 20.7 mph 26.5 mph N/A   Clear
5:55 PM 16.5 °F -0.1 °F 7.0 °F 66% 30.07 in 10.0 mi NNW 19.6 mph - N/A   Clear
6:15 PM 16.2 °F 1.3 °F 6.4 °F 66% 30.09 in 10.0 mi NNW 15.0 mph - N/A   Clear
6:35 PM 15.1 °F 0.5 °F 6.4 °F 69% 30.10 in 10.0 mi NNW 13.8 mph - N/A   Clear
7:15 PM 13.6 °F -1.3 °F 5.7 °F 71% 30.11 in 10.0 mi NNW 13.8 mph 19.6 mph N/A   Clear
7:35 PM 12.9 °F -1.6 °F 5.0 °F 71% 30.11 in 10.0 mi NNW 12.7 mph - N/A   Clear
7:55 PM 12.6 °F -1.4 °F 4.5 °F 70% 30.12 in 10.0 mi NNW 11.5 mph - N/A   Clear
8:15 PM 12.2 °F -1.0 °F 4.6 °F 72% 30.12 in 10.0 mi NNW 10.4 mph - N/A   Clear
8:35 PM 11.3 °F -0.4 °F 4.8 °F 75% 30.12 in 10.0 mi NNW 8.1 mph - N/A   Clear
8:55 PM 10.8 °F 0.0 °F 4.8 °F 77% 30.11 in 10.0 mi NNW 6.9 mph - N/A   Clear
9:15 PM 11.1 °F -3.9 °F 5.0 °F 76% 30.10 in 10.0 mi NNW 12.7 mph - N/A   Clear
9:35 PM 10.9 °F -3.4 °F 5.0 °F 77% 30.11 in 10.0 mi NNW 11.5 mph - N/A   Clear
9:55 PM 10.4 °F -4.8 °F 4.8 °F 78% 30.11 in 10.0 mi NNW 12.7 mph - N/A   Clear
10:15 PM 10.4 °F -4.8 °F 4.6 °F 78% 30.11 in 10.0 mi NNW 12.7 mph - N/A   Clear
10:35 PM 9.9 °F -4.0 °F 4.1 °F 78% 30.11 in 10.0 mi NNW 10.4 mph - N/A   Clear
10:55 PM 9.5 °F -4.4 °F 4.1 °F 79% 30.12 in 10.0 mi NW 10.4 mph - N/A   Clear
11:15 PM 9.5 °F -2.6 °F 3.9 °F 78% 30.13 in 10.0 mi NW 8.1 mph - N/A   Clear
11:35 PM 8.8 °F -2.4 °F 3.6 °F 79% 30.13 in 10.0 mi NW 6.9 mph - N/A   Clear
11:55 PM 8.6 °F -3.7 °F 3.7 °F 81% 30.13 in 10.0 mi NW 8.1 mph - N/A   Clear